This is the latest recevied weather packets stored in our database for station/object K7KAR-2. If no packets are shown the sender has not sent any weather packets the latest 10 day(s).
| Time | Temp. | Humidity | Pressure | Rain* | Wind** | Luminosity | Snow |
|---|---|---|---|---|---|---|---|
| 1777661666 | 18.89° C | 10% | 1017.9 hPa | 0 mm | - | 816 W/m² | - |
| 1777661362 | 18.89° C | 10% | 1018.1 hPa | 0 mm | - | 828 W/m² | - |
| 1777661059 | 18.89° C | 10% | 1018 hPa | 0 mm | - | 811 W/m² | - |
| 1777660753 | 18.89° C | 10% | 1018.1 hPa | 0 mm | - | 834 W/m² | - |
| 1777660451 | 18.33° C | 10% | 1018.1 hPa | 0 mm | - | 831 W/m² | - |
| 1777660147 | 18.89° C | 10% | 1018.2 hPa | 0 mm | - | 834 W/m² | - |
| 1777659844 | 18.89° C | 10% | 1018.2 hPa | 0 mm | - | 831 W/m² | - |
| 1777659541 | 19.44° C | 10% | 1018.2 hPa | 0 mm | - | 834 W/m² | - |
| 1777659238 | 18.89° C | 10% | 1018.4 hPa | 0 mm | - | 840 W/m² | - |
| 1777658935 | 18.33° C | 10% | 1018.6 hPa | 0 mm | - | 826 W/m² | - |
| 1777658631 | 18.33° C | 10% | 1018.4 hPa | 0 mm | - | 829 W/m² | - |
| 1777658329 | 17.78° C | 10% | 1018.5 hPa | 0 mm | - | 827 W/m² | - |
| 1777658025 | 18.33° C | 10% | 1018.4 hPa | 0 mm | - | 828 W/m² | - |
| 1777657722 | 18.33° C | 10% | 1018.5 hPa | 0 mm | - | 845 W/m² | - |
| 1777657419 | 17.78° C | 10% | 1018.5 hPa | 0 mm | - | 844 W/m² | - |
| 1777657117 | 18.33° C | 10% | 1018.5 hPa | 0 mm | - | 851 W/m² | - |
| 1777656814 | 18.33° C | 10% | 1018.4 hPa | 0 mm | - | 855 W/m² | - |
| 1777656510 | 19.44° C | 10% | 1018.5 hPa | 0 mm | - | 851 W/m² | - |
| 1777656205 | 20° C | 10% | 1018.5 hPa | 0 mm | - | 864 W/m² | - |
| 1777655901 | 19.44° C | 10% | 1018.8 hPa | 0 mm | - | 858 W/m² | - |
| 1777655601 | 18.89° C | 10% | 1018.9 hPa | 0 mm | - | 868 W/m² | - |
| 1777655295 | 18.89° C | 10% | 1018.6 hPa | 0 mm | - | 880 W/m² | - |
| 1777654992 | 17.78° C | 10% | 1018.9 hPa | 0 mm | - | 883 W/m² | - |
| 1777654689 | 16.67° C | 10% | 1018.9 hPa | 0 mm | - | 865 W/m² | - |
| 1777654387 | 16.67° C | 10% | 1018.8 hPa | 0 mm | - | 839 W/m² | - |
* Rain latest hour (hover to see other rain measurements)
** Current wind speed in m/s (hover to see current wind gust speed)